Year,Month,Day,Hour,Minute,Value (Times are PST for windgust in km/hr)
2021,03,30,00,21,1.60
2021,03,30,01,03,1.60
2021,03,30,01,04,1.60
2021,03,30,02,26,1.60
2021,03,30,02,27,1.60
2021,03,30,02,28,1.60
2021,03,30,02,29,3.20
2021,03,30,02,30,3.20
2021,03,30,02,31,3.20
2021,03,30,02,32,3.20
2021,03,30,02,33,4.80
2021,03,30,02,34,3.20
2021,03,30,02,35,3.20
2021,03,30,02,36,3.20
2021,03,30,02,37,3.20
2021,03,30,02,38,3.20
2021,03,30,02,39,3.20
2021,03,30,02,40,3.20
2021,03,30,02,41,1.60
2021,03,30,02,42,3.20
2021,03,30,02,43,3.20
2021,03,30,02,44,3.20
2021,03,30,02,45,3.20
2021,03,30,02,46,3.20
2021,03,30,02,47,4.80
2021,03,30,02,48,4.80
2021,03,30,02,49,3.20
2021,03,30,02,50,3.20
2021,03,30,02,51,3.20
2021,03,30,02,52,3.20
2021,03,30,02,53,3.20
2021,03,30,02,54,4.80
2021,03,30,02,55,4.80
2021,03,30,02,56,3.20
2021,03,30,02,58,3.20
2021,03,30,02,59,1.60
2021,03,30,03,10,1.60
2021,03,30,03,11,1.60
2021,03,30,03,12,1.60
2021,03,30,03,14,3.20
2021,03,30,03,15,3.20
2021,03,30,03,16,1.60
2021,03,30,03,17,4.80
2021,03,30,03,18,4.80
2021,03,30,03,19,3.20
2021,03,30,03,20,3.20
2021,03,30,03,21,4.80
2021,03,30,03,22,4.80
2021,03,30,03,23,6.40
2021,03,30,03,24,4.80
2021,03,30,03,25,3.20
2021,03,30,03,26,3.20
2021,03,30,03,27,4.80
2021,03,30,03,28,4.80
2021,03,30,03,29,4.80
2021,03,30,03,30,3.20
2021,03,30,03,31,1.60
2021,03,30,03,32,1.60
2021,03,30,03,36,1.60
2021,03,30,03,47,1.60
2021,03,30,03,48,1.60
2021,03,30,03,49,1.60
2021,03,30,03,50,1.60
2021,03,30,03,51,1.60
2021,03,30,03,52,1.60
2021,03,30,03,53,1.60
2021,03,30,03,54,1.60
2021,03,30,03,55,1.60
2021,03,30,03,56,1.60
2021,03,30,03,59,1.60
2021,03,30,04,00,1.60
2021,03,30,04,01,1.60
2021,03,30,04,02,1.60
2021,03,30,04,03,1.60
2021,03,30,04,09,1.60
2021,03,30,04,10,1.60
2021,03,30,04,11,1.60
2021,03,30,04,19,1.60
2021,03,30,04,21,1.60
2021,03,30,04,22,1.60
2021,03,30,04,27,1.60
2021,03,30,04,40,1.60
2021,03,30,04,41,3.20
2021,03,30,04,42,3.20
2021,03,30,04,43,1.60
2021,03,30,04,44,3.20
2021,03,30,04,45,1.60
2021,03,30,04,46,1.60
2021,03,30,04,49,1.60
2021,03,30,04,50,1.60
2021,03,30,04,51,3.20
2021,03,30,04,52,1.60
2021,03,30,04,53,1.60
2021,03,30,04,54,1.60
2021,03,30,04,56,1.60
2021,03,30,08,49,1.60
2021,03,30,08,51,1.60
2021,03,30,08,52,1.60
2021,03,30,08,53,1.60
2021,03,30,08,56,1.60
2021,03,30,08,57,1.60
2021,03,30,08,59,1.60
2021,03,30,09,00,1.60
2021,03,30,09,03,1.60
2021,03,30,09,04,1.60
2021,03,30,09,05,1.60
2021,03,30,09,06,1.60
2021,03,30,09,07,1.60
2021,03,30,09,11,1.60
2021,03,30,09,16,1.60
2021,03,30,09,19,4.80
2021,03,30,09,20,8.10
2021,03,30,09,21,6.40
2021,03,30,09,22,4.80
2021,03,30,09,23,8.10
2021,03,30,09,24,4.80
2021,03,30,09,25,3.20
2021,03,30,09,26,3.20
2021,03,30,09,27,4.80
2021,03,30,09,28,6.40
2021,03,30,09,29,4.80
2021,03,30,09,30,1.60
2021,03,30,09,31,6.40
2021,03,30,09,32,6.40
2021,03,30,09,33,9.60
2021,03,30,09,34,12.90
2021,03,30,09,35,12.90
2021,03,30,09,36,8.10
2021,03,30,09,37,12.90
2021,03,30,09,38,9.60
2021,03,30,09,39,8.10
2021,03,30,09,40,9.60
2021,03,30,09,41,9.60
2021,03,30,09,42,12.90
2021,03,30,09,43,11.30
2021,03,30,09,44,11.30
2021,03,30,09,45,9.60
2021,03,30,09,46,8.10
2021,03,30,09,47,6.40
2021,03,30,09,48,4.80
2021,03,30,09,49,3.20
2021,03,30,09,50,6.40
2021,03,30,09,51,8.10
2021,03,30,09,52,9.60
2021,03,30,09,53,6.40
2021,03,30,09,54,8.10
2021,03,30,09,55,8.10
2021,03,30,09,56,12.90
2021,03,30,09,57,11.30
2021,03,30,09,58,8.10
2021,03,30,09,59,8.10
2021,03,30,10,00,6.40
2021,03,30,10,01,9.60
2021,03,30,10,02,11.30
2021,03,30,10,03,11.30
2021,03,30,10,04,8.10
2021,03,30,10,05,6.40
2021,03,30,10,06,3.20
2021,03,30,10,07,9.60
2021,03,30,10,08,6.40
2021,03,30,10,09,11.30
2021,03,30,10,10,8.10
2021,03,30,10,11,6.40
2021,03,30,10,12,4.80
2021,03,30,10,13,8.10
2021,03,30,10,14,8.10
2021,03,30,10,15,6.40
2021,03,30,10,16,6.40
2021,03,30,10,17,4.80
2021,03,30,10,18,3.20
2021,03,30,10,19,16.10
2021,03,30,10,20,16.10
2021,03,30,10,21,14.50
2021,03,30,10,22,9.60
2021,03,30,10,23,8.10
2021,03,30,10,24,9.60
2021,03,30,10,25,9.60
2021,03,30,10,26,6.40
2021,03,30,10,27,11.30
2021,03,30,10,28,8.10
2021,03,30,10,29,8.10
2021,03,30,10,30,4.80
2021,03,30,10,31,6.40
2021,03,30,10,32,8.10
2021,03,30,10,33,4.80
2021,03,30,10,34,3.20
2021,03,30,10,35,1.60
2021,03,30,10,36,3.20
2021,03,30,10,37,4.80
2021,03,30,10,38,6.40
2021,03,30,10,39,6.40
2021,03,30,10,40,1.60
2021,03,30,10,41,1.60
2021,03,30,10,42,4.80
2021,03,30,10,43,4.80
2021,03,30,10,44,1.60
2021,03,30,10,45,8.10
2021,03,30,10,46,11.30
2021,03,30,10,47,8.10
2021,03,30,10,48,3.20
2021,03,30,10,49,3.20
2021,03,30,10,50,12.90
2021,03,30,10,51,9.60
2021,03,30,10,52,3.20
2021,03,30,10,53,4.80
2021,03,30,10,54,6.40
2021,03,30,10,55,11.30
2021,03,30,10,56,9.60
2021,03,30,10,58,6.40
2021,03,30,10,59,11.30
2021,03,30,11,00,9.60
2021,03,30,11,01,12.90
2021,03,30,11,02,8.10
2021,03,30,11,03,12.90
2021,03,30,11,04,11.30
2021,03,30,11,05,14.50
2021,03,30,11,06,8.10
2021,03,30,11,07,12.90
2021,03,30,11,08,11.30
2021,03,30,11,09,8.10
2021,03,30,11,10,4.80
2021,03,30,11,11,11.30
2021,03,30,11,12,8.10
2021,03,30,11,13,11.30
2021,03,30,11,14,9.60
2021,03,30,11,15,12.90
2021,03,30,11,16,4.80
2021,03,30,11,17,9.60
2021,03,30,11,18,4.80
2021,03,30,11,19,11.30
2021,03,30,11,20,9.60
2021,03,30,11,21,11.30
2021,03,30,11,22,11.30
2021,03,30,11,23,9.60
2021,03,30,11,24,6.40
2021,03,30,11,25,4.80
2021,03,30,11,26,3.20
2021,03,30,11,27,14.50
2021,03,30,11,28,12.90
2021,03,30,11,29,11.30
2021,03,30,11,30,11.30
2021,03,30,11,31,8.10
2021,03,30,11,32,4.80
2021,03,30,11,33,12.90
2021,03,30,11,34,4.80
2021,03,30,11,35,4.80
2021,03,30,11,36,6.40
2021,03,30,11,37,8.10
2021,03,30,11,38,3.20
2021,03,30,11,39,3.20
2021,03,30,11,40,9.60
2021,03,30,11,41,9.60
2021,03,30,11,42,9.60
2021,03,30,11,43,9.60
2021,03,30,11,44,4.80
2021,03,30,11,45,4.80
2021,03,30,11,46,9.60
2021,03,30,11,47,8.10
2021,03,30,11,48,11.30
2021,03,30,11,49,12.90
2021,03,30,11,50,8.10
2021,03,30,11,51,8.10
2021,03,30,11,52,9.60
2021,03,30,11,53,16.10
2021,03,30,11,54,11.30
2021,03,30,11,55,8.10
2021,03,30,11,56,3.20
2021,03,30,11,57,11.30
2021,03,30,11,58,12.90
2021,03,30,11,59,12.90
2021,03,30,12,00,14.50
2021,03,30,12,01,12.90
2021,03,30,12,02,8.10
2021,03,30,12,03,4.80
2021,03,30,12,04,12.90
2021,03,30,12,05,14.50
2021,03,30,12,06,12.90
2021,03,30,12,07,17.70
2021,03,30,12,08,19.30
2021,03,30,12,09,14.50
2021,03,30,12,10,11.30
2021,03,30,12,11,9.60
2021,03,30,12,12,8.10
2021,03,30,12,13,14.50
2021,03,30,12,14,12.90
2021,03,30,12,15,12.90
2021,03,30,12,16,20.90
2021,03,30,12,17,17.70
2021,03,30,12,18,17.70
2021,03,30,12,19,17.70
2021,03,30,12,20,11.30
2021,03,30,12,21,6.40
2021,03,30,12,22,9.60
2021,03,30,12,23,9.60
2021,03,30,12,24,12.90
2021,03,30,12,25,6.40
2021,03,30,12,26,6.40
2021,03,30,12,27,16.10
2021,03,30,12,28,14.50
2021,03,30,12,29,11.30
2021,03,30,12,30,6.40
2021,03,30,12,31,12.90
2021,03,30,12,32,11.30
2021,03,30,12,33,12.90
2021,03,30,12,34,14.50
2021,03,30,12,35,11.30
2021,03,30,12,36,12.90
2021,03,30,12,37,14.50
2021,03,30,12,38,19.30
2021,03,30,12,39,16.10
2021,03,30,12,40,12.90
2021,03,30,12,41,12.90
2021,03,30,12,42,17.70
2021,03,30,12,43,11.30
2021,03,30,12,44,8.10
2021,03,30,12,45,11.30
2021,03,30,12,46,11.30
2021,03,30,12,47,4.80
2021,03,30,12,48,17.70
2021,03,30,12,49,16.10
2021,03,30,12,50,9.60
2021,03,30,12,51,12.90
2021,03,30,12,52,12.90
2021,03,30,12,53,12.90
2021,03,30,12,54,16.10
2021,03,30,12,55,17.70
2021,03,30,12,56,16.10
2021,03,30,12,57,17.70
2021,03,30,12,58,12.90
2021,03,30,12,59,9.60
2021,03,30,13,00,11.30
2021,03,30,13,01,4.80
2021,03,30,13,02,8.10
2021,03,30,13,03,17.70
2021,03,30,13,04,14.50
2021,03,30,13,05,17.70
2021,03,30,13,06,14.50
2021,03,30,13,07,19.30
2021,03,30,13,08,19.30
2021,03,30,13,09,17.70
2021,03,30,13,10,9.60
2021,03,30,13,11,14.50
2021,03,30,13,12,19.30
2021,03,30,13,13,17.70
2021,03,30,13,14,19.30
2021,03,30,13,15,17.70
2021,03,30,13,16,14.50
2021,03,30,13,17,14.50
2021,03,30,13,18,11.30
2021,03,30,13,19,11.30
2021,03,30,13,20,9.60
2021,03,30,13,21,11.30
2021,03,30,13,22,3.20
2021,03,30,13,23,14.50
2021,03,30,13,24,14.50
2021,03,30,13,25,12.90
2021,03,30,13,26,9.60
2021,03,30,13,27,16.10
2021,03,30,13,28,8.10
2021,03,30,13,29,11.30
2021,03,30,13,30,14.50
2021,03,30,13,31,14.50
2021,03,30,13,32,12.90
2021,03,30,13,33,12.90
2021,03,30,13,34,12.90
2021,03,30,13,35,12.90
2021,03,30,13,36,16.10
2021,03,30,13,37,11.30
2021,03,30,13,38,14.50
2021,03,30,13,39,9.60
2021,03,30,13,40,11.30
2021,03,30,13,41,11.30
2021,03,30,13,42,14.50
2021,03,30,13,43,12.90
2021,03,30,13,44,11.30
2021,03,30,13,45,17.70
2021,03,30,13,46,19.30
2021,03,30,13,47,16.10
2021,03,30,13,48,14.50
2021,03,30,13,49,8.10
2021,03,30,13,50,14.50
2021,03,30,13,51,16.10
2021,03,30,13,52,12.90
2021,03,30,13,53,16.10
2021,03,30,13,54,12.90
2021,03,30,13,55,16.10
2021,03,30,13,56,11.30
2021,03,30,13,57,6.40
2021,03,30,13,58,6.40
2021,03,30,13,59,16.10
2021,03,30,14,00,12.90
2021,03,30,14,01,4.80
2021,03,30,14,02,6.40
2021,03,30,14,03,6.40
2021,03,30,14,04,12.90
2021,03,30,14,05,14.50
2021,03,30,14,06,12.90
2021,03,30,14,07,8.10
2021,03,30,14,08,11.30
2021,03,30,14,09,4.80
2021,03,30,14,10,12.90
2021,03,30,14,11,14.50
2021,03,30,14,12,14.50
2021,03,30,14,13,4.80
2021,03,30,14,14,16.10
2021,03,30,14,15,16.10
2021,03,30,14,16,12.90
2021,03,30,14,17,14.50
2021,03,30,14,18,11.30
2021,03,30,14,19,3.20
2021,03,30,14,20,8.10
2021,03,30,14,21,11.30
2021,03,30,14,22,11.30
2021,03,30,14,23,11.30
2021,03,30,14,24,11.30
2021,03,30,14,25,11.30
2021,03,30,14,26,12.90
2021,03,30,14,27,8.10
2021,03,30,14,28,16.10
2021,03,30,14,29,16.10
2021,03,30,14,30,11.30
2021,03,30,14,31,8.10
2021,03,30,14,32,8.10
2021,03,30,14,33,14.50
2021,03,30,14,34,11.30
2021,03,30,14,35,6.40
2021,03,30,14,36,11.30
2021,03,30,14,37,12.90
2021,03,30,14,38,11.30
2021,03,30,14,39,14.50
2021,03,30,14,40,12.90
2021,03,30,14,41,14.50
2021,03,30,14,42,12.90
2021,03,30,14,43,12.90
2021,03,30,14,44,12.90
2021,03,30,14,45,12.90
2021,03,30,14,46,11.30
2021,03,30,14,47,8.10
2021,03,30,14,48,14.50
2021,03,30,14,49,9.60
2021,03,30,14,50,8.10
2021,03,30,14,51,8.10
2021,03,30,14,52,9.60
2021,03,30,14,53,12.90
2021,03,30,14,54,12.90
2021,03,30,14,55,12.90
2021,03,30,14,56,12.90
2021,03,30,14,57,14.50
2021,03,30,14,58,9.60
2021,03,30,14,59,11.30
2021,03,30,15,00,6.40
2021,03,30,15,01,14.50
2021,03,30,15,02,14.50
2021,03,30,15,03,8.10
2021,03,30,15,04,12.90
2021,03,30,15,05,14.50
2021,03,30,15,06,8.10
2021,03,30,15,07,4.80
2021,03,30,15,08,14.50
2021,03,30,15,09,12.90
2021,03,30,15,10,16.10
2021,03,30,15,11,8.10
2021,03,30,15,12,9.60
2021,03,30,15,13,8.10
2021,03,30,15,14,9.60
2021,03,30,15,15,6.40
2021,03,30,15,16,12.90
2021,03,30,15,17,12.90
2021,03,30,15,18,9.60
2021,03,30,15,19,9.60
2021,03,30,15,20,11.30
2021,03,30,15,21,11.30
2021,03,30,15,22,14.50
2021,03,30,15,23,11.30
2021,03,30,15,24,8.10
2021,03,30,15,25,6.40
2021,03,30,15,26,12.90
2021,03,30,15,27,12.90
2021,03,30,15,28,8.10
2021,03,30,15,29,4.80
2021,03,30,15,30,3.20
2021,03,30,15,31,14.50
2021,03,30,15,32,12.90
2021,03,30,15,33,11.30
2021,03,30,15,34,9.60
2021,03,30,15,35,8.10
2021,03,30,15,36,4.80
2021,03,30,15,37,3.20
2021,03,30,15,38,8.10
2021,03,30,15,39,9.60
2021,03,30,15,40,4.80
2021,03,30,15,41,4.80
2021,03,30,15,42,8.10
2021,03,30,15,43,8.10
2021,03,30,15,44,8.10
2021,03,30,15,45,3.20
2021,03,30,15,46,1.60
2021,03,30,15,47,3.20
2021,03,30,15,48,12.90
2021,03,30,15,49,14.50
2021,03,30,15,50,12.90
2021,03,30,15,51,11.30
2021,03,30,15,52,8.10
2021,03,30,15,53,9.60
2021,03,30,15,54,12.90
2021,03,30,15,55,14.50
2021,03,30,15,56,12.90
2021,03,30,15,57,14.50
2021,03,30,15,58,6.40
2021,03,30,15,59,3.20
2021,03,30,16,00,6.40
2021,03,30,16,01,3.20
2021,03,30,16,02,11.30
2021,03,30,16,03,11.30
2021,03,30,16,04,16.10
2021,03,30,16,05,12.90
2021,03,30,16,06,8.10
2021,03,30,16,07,14.50
2021,03,30,16,08,17.70
2021,03,30,16,09,12.90
2021,03,30,16,10,8.10
2021,03,30,16,11,8.10
2021,03,30,16,12,8.10
2021,03,30,16,13,8.10
2021,03,30,16,14,6.40
2021,03,30,16,15,11.30
2021,03,30,16,16,9.60
2021,03,30,16,17,12.90
2021,03,30,16,18,4.80
2021,03,30,16,19,11.30
2021,03,30,16,20,11.30
2021,03,30,16,21,12.90
2021,03,30,16,22,8.10
2021,03,30,16,23,8.10
2021,03,30,16,24,3.20
2021,03,30,16,25,9.60
2021,03,30,16,26,12.90
2021,03,30,16,27,6.40
2021,03,30,16,28,4.80
2021,03,30,16,29,6.40
2021,03,30,16,30,8.10
2021,03,30,16,31,11.30
2021,03,30,16,32,6.40
2021,03,30,16,33,3.20
2021,03,30,16,34,1.60
2021,03,30,16,35,3.20
2021,03,30,16,36,1.60
2021,03,30,16,37,6.40
2021,03,30,16,38,9.60
2021,03,30,16,39,14.50
2021,03,30,16,40,12.90
2021,03,30,16,41,11.30
2021,03,30,16,42,9.60
2021,03,30,16,43,6.40
2021,03,30,16,44,8.10
2021,03,30,16,45,1.60
2021,03,30,16,46,11.30
2021,03,30,16,47,9.60
2021,03,30,16,48,11.30
2021,03,30,16,49,12.90
2021,03,30,16,50,4.80
2021,03,30,16,51,3.20
2021,03,30,16,52,3.20
2021,03,30,16,53,9.60
2021,03,30,16,54,9.60
2021,03,30,16,55,8.10
2021,03,30,16,56,4.80
2021,03,30,16,57,8.10
2021,03,30,16,58,4.80
2021,03,30,16,59,4.80
2021,03,30,17,00,4.80
2021,03,30,17,01,1.60
2021,03,30,17,02,4.80
2021,03,30,17,03,1.60
2021,03,30,17,04,4.80
2021,03,30,17,05,11.30
2021,03,30,17,06,11.30
2021,03,30,17,07,9.60
2021,03,30,17,08,12.90
2021,03,30,17,09,6.40
2021,03,30,17,10,3.20
2021,03,30,17,11,3.20
2021,03,30,17,12,8.10
2021,03,30,17,13,11.30
2021,03,30,17,14,9.60
2021,03,30,17,15,8.10
2021,03,30,17,16,3.20
2021,03,30,17,17,1.60
2021,03,30,17,18,9.60
2021,03,30,17,19,8.10
2021,03,30,17,20,9.60
2021,03,30,17,21,8.10
2021,03,30,17,22,4.80
2021,03,30,17,23,3.20
2021,03,30,17,24,4.80
2021,03,30,17,25,8.10
2021,03,30,17,26,8.10
2021,03,30,17,27,8.10
2021,03,30,17,28,3.20
2021,03,30,17,29,3.20
2021,03,30,17,30,4.80
2021,03,30,17,31,4.80
2021,03,30,17,32,4.80
2021,03,30,17,33,6.40
2021,03,30,17,34,8.10
2021,03,30,17,35,1.60
2021,03,30,17,36,3.20
2021,03,30,17,37,4.80
2021,03,30,17,38,9.60
2021,03,30,17,39,6.40
2021,03,30,17,40,9.60
2021,03,30,17,41,4.80
2021,03,30,17,42,6.40
2021,03,30,17,43,3.20
2021,03,30,17,45,6.40
2021,03,30,17,47,3.20
2021,03,30,17,48,3.20
2021,03,30,17,49,3.20
2021,03,30,17,50,3.20
2021,03,30,17,51,4.80
2021,03,30,17,52,3.20
2021,03,30,17,53,3.20
2021,03,30,17,54,1.60
2021,03,30,17,55,1.60
2021,03,30,17,56,6.40
2021,03,30,17,57,3.20
2021,03,30,17,58,6.40
2021,03,30,17,59,6.40
2021,03,30,18,00,6.40
2021,03,30,18,01,4.80
2021,03,30,18,02,1.60
2021,03,30,18,03,1.60
2021,03,30,18,04,4.80
2021,03,30,18,05,4.80
2021,03,30,18,06,9.60
2021,03,30,18,07,8.10
2021,03,30,18,08,4.80
2021,03,30,18,09,6.40
2021,03,30,18,10,3.20
2021,03,30,18,11,1.60
2021,03,30,18,12,3.20
2021,03,30,18,13,3.20
2021,03,30,18,14,4.80
2021,03,30,18,15,6.40
2021,03,30,18,16,4.80
2021,03,30,18,17,8.10
2021,03,30,18,18,8.10
2021,03,30,18,19,8.10
2021,03,30,18,20,6.40
2021,03,30,18,21,8.10
2021,03,30,18,22,6.40
2021,03,30,18,23,6.40
2021,03,30,18,24,4.80
2021,03,30,18,25,1.60
2021,03,30,18,26,3.20
2021,03,30,18,27,4.80
2021,03,30,18,28,4.80
2021,03,30,18,29,8.10
2021,03,30,18,30,3.20
2021,03,30,18,31,8.10
2021,03,30,18,32,4.80
2021,03,30,18,33,4.80
2021,03,30,18,34,3.20
2021,03,30,18,35,3.20
2021,03,30,18,36,8.10
2021,03,30,18,37,8.10
2021,03,30,18,38,4.80
2021,03,30,18,39,8.10
2021,03,30,18,40,8.10
2021,03,30,18,41,4.80
2021,03,30,18,42,8.10
2021,03,30,18,43,8.10
2021,03,30,18,44,4.80
2021,03,30,18,45,3.20
2021,03,30,18,46,1.60
2021,03,30,18,47,3.20
2021,03,30,18,48,4.80
2021,03,30,18,49,3.20
2021,03,30,18,50,3.20
2021,03,30,18,53,3.20
2021,03,30,18,54,1.60
2021,03,30,18,57,1.60
2021,03,30,18,58,4.80
2021,03,30,18,59,3.20
2021,03,30,19,00,3.20
2021,03,30,19,03,4.80
2021,03,30,19,04,3.20
2021,03,30,19,05,1.60
2021,03,30,19,06,1.60
2021,03,30,19,08,1.60
2021,03,30,19,10,3.20
2021,03,30,19,11,3.20
2021,03,30,19,12,3.20
2021,03,30,19,13,3.20
2021,03,30,19,14,1.60
2021,03,30,19,15,1.60
2021,03,30,20,01,1.60
2021,03,30,20,02,1.60
2021,03,30,20,40,1.60
2021,03,30,20,41,1.60
2021,03,30,20,42,3.20
2021,03,30,20,43,1.60
2021,03,30,20,44,1.60
2021,03,30,20,45,1.60
2021,03,30,20,46,1.60
2021,03,30,20,47,1.60
2021,03,30,20,48,1.60
2021,03,30,20,49,1.60
2021,03,30,21,05,1.60
2021,03,30,21,06,1.60
2021,03,30,21,07,1.60
2021,03,30,21,08,1.60
2021,03,30,21,09,1.60
2021,03,30,21,10,1.60
2021,03,30,21,38,1.60
